{"data":{"norad_id":59540,"epoch":"2026-09-21T11:20:06.967968Z","epoch_age_seconds":84239,"freshness":"FRESH","line1":"1 59540U 24074G   26264.47230287  .00001174  00000+0  52197-4 0  9993","line2":"2 59540  43.0052 318.1130 0001660 283.2569  76.8098 15.27583750135958","mean_motion":15.2758375,"eccentricity":0.000166,"inclination_deg":43.0052,"raan_deg":318.113,"arg_perigee_deg":283.2569,"mean_anomaly_deg":76.8098,"bstar":5.2197e-5,"rev_number":13595,"period_min":94.266517302243,"perigee_km":481.89891218561,"apogee_km":484.17682224153,"semimajor_km":6861.1748672136,"source":"CELESTRAK","updated_at":"2026-09-22T09:00:48.971883Z"}}